Regional Weather Roundup
Issued by NWS Little Rock, AR

Home | Current Version | Previous Version | Graphics & Text | Print | Product List | Glossary On
Versions: 1 2 3 4 5 6 7 8 9 10 11 12 13 14 15 16 17 18 19 20 21 22 23 24 25 26 27 28 29 30 31 32 33 34 35 36 37 38 39 40 41 42 43 44 45 46 47 48 49 50
621
ASUS44 KLZK 232005
RWRLZK

WEATHER ROUNDUP FOR ARKANSAS
NATIONAL WEATHER SERVICE LITTLE ROCK AR
300 PM CDT SUN APR 23 2017

NOTE: "FAIR" INDICATES FEW OR NO CLOUDS BELOW 12,000 FEET WITH NO
SIGNIFICANT WEATHER AND/OR OBSTRUCTIONS TO VISIBILITY.

ARZ001-003-010-029-232100-
NORTHWEST ARKANSAS

CITY           SKY/WX    TMP DP  RH WIND       PRES   REMARKS
FAYETTEVILLE   SUNNY     66  38  35 N8        30.07F
FORT SMITH     SUNNY     72  34  24 MISG      30.05S
HARRISON       SUNNY     68  34  28 N10G20    30.05F
BENTONVILLE    SUNNY     64  37  36 N7        30.09F
ROGERS         SUNNY     65  40  39 N10       30.09F
SILOAM SPGS    SUNNY     64  39  39 N9        30.08F
HIGHFILL       SUNNY     69  40  34 N9G21     30.08F
SPRINGDALE     SUNNY     66  37  34 N8G16     30.09F
$$

ARZ004-005-016-232100-
NORTH CENTRAL ARKANSAS

CITY           SKY/WX    TMP DP  RH WIND       PRES   REMARKS
BATESVILLE     SUNNY    N/A N/A N/A NW9       29.97F
FLIPPIN        SUNNY    N/A N/A N/A N14       30.00F
MTN HOME       SUNNY     69  34  27 VRB5      30.01F
$$

ARZ040-041-232100-
WEST CENTRAL ARKANSAS

CITY           SKY/WX    TMP DP  RH WIND       PRES   REMARKS
MENA           SUNNY     68  37  32 NE7G16    30.03F
MOUNT IDA      SUNNY     70  34  26 VRB5      29.99F
$$

ARZ009-017-025-026-028-232100-
NORTHEAST ARKANSAS

CITY           SKY/WX    TMP DP  RH WIND       PRES   REMARKS
JONESBORO      SUNNY     68  40  35 NE15G23   29.93F
NEWPORT        SUNNY     69  40  34 MISG      29.95F
WALNUT RIDGE   SUNNY     70  39  32 N16G22    29.95S
BLYTHEVILLE    CLOUDY    63  50  62 N16G24    29.93S
$$

ARZ022-023-033-042-044-232100-
CENTRAL ARKANSAS

CITY           SKY/WX    TMP DP  RH WIND       PRES   REMARKS
LITTLE ROCK    SUNNY     69  40  34 N13G25    29.98F
N LITTLE ROCK    N/A     67  42  39 N8G16     29.99F
JACKSONVILLE   SUNNY     70  42  36 N12G20    29.97F
CONWAY           N/A     70  39  32 N12G18    29.97F
SEARCY         SUNNY     69  40  34 N14G20    29.98F
HOT SPRINGS    SUNNY     69  37  30 VRB6      30.00F
RUSSELLVILLE   SUNNY     72  36  26 N10G20    29.99F
$$

ARZ036-232100-
EAST ARKANSAS

CITY           SKY/WX    TMP DP  RH WIND       PRES   REMARKS
WEST MEMPHIS   CLOUDY    61  50  67 N12G18    29.93S
$$

ARZ050-053-066-070-073-232100-
SOUTHWEST ARKANSAS

CITY           SKY/WX    TMP DP  RH WIND       PRES   REMARKS
ARKADELPHIA    FAIR      68  45  43 N13       30.00F
CAMDEN         MOSUNNY   72  41  33 NW7G16    29.99F
TEXARKANA      SUNNY     68  46  45 NW10G20   30.02F
EL DORADO        N/A    N/A N/A N/A MISG      29.99S
DE QUEEN       SUNNY     71  40  32 VRB6      30.00F
$$

ARZ056-057-069-232100-
SOUTHEAST ARKANSAS

CITY           SKY/WX    TMP DP  RH WIND       PRES   REMARKS
PINE BLUFF     SUNNY     67  42  40 N10G23    29.97F
STUTTGART      SUNNY     66  39  37 N17G23    29.97S
MONTICELLO     SUNNY     68  43  40 NW10G23   29.96S

$$






USA.gov is the U.S. government's official web portal to all federal, state and local government web resources and services.